[Iaude] MPEC A23: 2024 AJ [a=1.80,e=0.46,i=0.4,H=27.2]
    mpec at marsden.cfa.harvard.edu 
    mpec at marsden.cfa.harvard.edu
       
    Wed Jan  3 01:48:49 EST 2024
    
    
  
M.P.E.C. 2024-A23                               Issued 2024 January 3, 06:46 UT
     The Minor Planet Electronic Circulars contain information on unusual
         minor planets, routine data on comets and natural satellites,
         and occasional editorial announcements.  They are published
    on behalf of Division F of the International Astronomical Union by the
          Minor Planet Center, Smithsonian Astrophysical Observatory,
                          Cambridge, MA 02138, U.S.A.
			  
             Prepared using the Tamkin Foundation Computer Network
                              MPC at CFA.HARVARD.EDU
            URL https://www.minorplanetcenter.net/    ISSN 1523-6714
                                    2024 AJ                                     
Observations:
     K24A00J*1C2024 01 01.34868106 48 36.821+33 32 52.69         20.46GVEA023G96
     K24A00J 1C2024 01 01.35444506 48 43.830+33 32 18.92         20.36GVEA023G96
     K24A00J 1C2024 01 01.36019506 48 50.796+33 31 45.12         20.46GVEA023G96
     K24A00J KC2024 01 01.38949606 49 26.231+33 28 53.44         19.54GVEA023I52
     K24A00J KC2024 01 01.39102006 49 28.070+33 28 44.22         20.27GVEA023I52
     K24A00J KC2024 01 01.39256006 49 29.932+33 28 34.21         19.09GVEA023I52
     K24A00J KC2024 01 01.39408606 49 31.771+33 28 26.08         20.53GVEA023I52
     K24A00J KB2024 01 01.85199 06 59 20.930+32 45 10.19         20.5 VZEA023J57
     K24A00J KB2024 01 01.86315 06 59 33.422+32 44 15.50         20.7 VZEA023J57
     K24A00J 7C2024 01 02.03095507 02 32.400+32 30 03.82         20.8 GVEA023Z84
     K24A00J 7C2024 01 02.03388807 02 35.442+32 29 47.88               VEA023Z84
     K24A00J KB2024 01 02.21414 07 06 01.74 +32 13 30.4          20.5 GXEA023H36
     K24A00J KB2024 01 02.23608 07 06 23.40 +32 11 39.1          20.9 GXEA023H36
     K24A00J KB2024 01 02.24704 07 06 34.17 +32 10 42.6          20.7 GXEA023H36
     K24A00J KC2024 01 03.25880307 22 42.35 +30 45 33.8          21.1 GVEA023H21
     K24A00J KC2024 01 03.26439807 22 46.68 +30 45 07.0          21.0 GVEA023H21
     K24A00J KC2024 01 03.26654207 22 48.34 +30 44 56.8          20.8 GVEA023H21
Observer details:
G96 Mt. Lemmon Survey.  Observer K. W. Wierzchos.  Measurers E. C. Beshore, D.
    Fay, J. B. Fazekas, D. C. Fuls, A. R. Gibbs, A. D. Grauer, H. Groeller, J.
    K. Hogan, R. A. Kowalski, S. M. Larson, G. J. Leonard, D. Rankin, R. L.
    Seaman, F. C. Shelly, K. W. Wierzchos.  1.5-m reflector + 10K CCD.
H21 Astronomical Research Observatory, Westfield.  Observer R. Holmes.
    Measurers T. Linder, R. Holmes, L. Horn.  0.76-m f/3.0 astrograph + CCD.
H36 Sandlot Observatory, Scranton.  Observer G. Hug.  0.56-m f/4.8 reflector +
    CMO.
I52 Steward Observatory, Mt. Lemmon Station.  Observer G. J. Leonard.
    Measurers E. C. Beshore, D. Fay, J. B. Fazekas, D. C. Fuls, A. R. Gibbs,
    A. D. Grauer, H. Groeller, J. K. Hogan, R. A. Kowalski, S. M. Larson, G.
    J. Leonard, D. Rankin, R. L. Seaman, F. C. Shelly, K. W. Wierzchos.  1.0-m
    prime focus + CCD.
J57 Centro Astronomico Alto Turia, Valencia.  Observer A. Fornas.  Measurers
    A. Fornas, G. Fornas, E. Arce, V. Mas.  0.43-m f/6.8 Reflector 0.4m + CMO.
Z84 Calar Alto-Schmidt.  Observers F. Ocana, R. Kresken, M. Micheli, L.
    Conversi.  Measurers F. Ocana, M. Micheli.  0.8-m f/3 Schmidt + CCD.
Orbital elements:
2024 AJ                                                  Earth MOID = 0.0063 AU
Epoch 2023 Sept. 13.0 TT = JDT 2460200.5                MPC                     
M 325.10625              (2000.0)            P               Q                  
n   0.40849024     Peri.   88.69794     +0.34194513     -0.93971744             
a   1.7989327      Node   341.30620     +0.85947685     +0.31367389             
e   0.4593846      Incl.    0.38573     +0.37996457     +0.13616101             
P   2.41           H   27.29          G   0.15           U   8                  
Residuals in seconds of arc
240101 G96  0.4-  0.6+    240101 I52  0.1-  0.2+    240102 H36  0.0   0.2+
240101 G96  0.0   0.2+    240101 J57  0.1-  0.1-    240102 H36  0.1+  0.0
240101 G96  0.1+  0.3-    240101 J57  0.1+  0.3-    240103 H21  0.1-  0.0
240101 I52  0.1+  0.3+    240102 Z84  0.5-  0.0     240103 H21  0.0   0.1-
240101 I52  0.0   0.1+    240102 Z84  0.1-  0.0     240103 H21  0.1+  0.0
240101 I52  0.0   0.7-    240102 H36  0.4+  0.0
Ephemeris:
2024 AJ                  a,e,i = 1.80, 0.46, 0                   q = 0.9725
Date    TT    R. A. (2000) Decl.     Delta      r    Elong.  Phase     V
2023 12 04    22 06 19.0 -07 23 40   0.09440 0.9734    79.8    94.8    25.5
...
2023 12 19    23 17 01.4 +06 04 00   0.03802 0.9821    86.1    91.7    23.4
...
2023 12 27    03 13 55.3 +35 34 05   0.02146 0.9995   138.1    41.1    20.6
...
2024 01 02    07 01 57.6 +32 33 15   0.03502 1.0178   169.9     9.8    20.7
2024 01 03    07 18 52.8 +31 07 09   0.03854 1.0212   169.7     9.9    20.9
2024 01 04    07 32 28.5 +29 49 18   0.04222 1.0248   169.2    10.4    21.1
...
2024 01 10    08 16 39.4 +24 35 54   0.06652 1.0484   167.2    12.0    22.2
...
2024 01 18    08 37 33.2 +21 22 29   0.1026  1.0851   170.4     8.7    23.1
...
2024 02 02    08 49 16.1 +18 59 09   0.1813  1.1665   177.0     2.5    24.2
A. U. Tomatic                (C) Copyright 2024 MPC           M.P.E.C. 2024-A23
    
    
More information about the Iaude
mailing list